{"data":{"norad_id":57682,"epoch":"2026-05-24T21:35:01.535712Z","epoch_age_seconds":83411,"freshness":"FRESH","line1":"1 57682U 23124V   26144.89932333  .00001572  00000+0  65199-4 0  9995","line2":"2 57682  53.1603 213.0283 0001583  91.8051 268.3131 15.30199572155230","mean_motion":15.30199572,"eccentricity":0.0001583,"inclination_deg":53.1603,"raan_deg":213.0283,"arg_perigee_deg":91.8051,"mean_anomaly_deg":268.3131,"bstar":6.5199e-5,"rev_number":15523,"period_min":94.105372027904,"perigee_km":474.13146151559,"apogee_km":476.30123318536,"semimajor_km":6853.3533473505,"source":"CELESTRAK","updated_at":"2026-05-25T13:38:18.370322Z"}}